Regional Weather Roundup
Issued by NWS

Home | Current Version | Previous Version | Text Only | Print | Product List | Glossary On
Versions: 1 2 3 4 5 6 7 8 9 10 11 12 13 14 15 16 17 18 19 20 21 22 23 24 25 26 27 28
000
ASUS44 KBMX 262210
RWRAL

ALABAMA REGIONAL WEATHER ROUNDUP
NATIONAL WEATHER SERVICE BIRMINGHAM AL
500 PM CDT THU APR 26 2018

NOTE: "FAIR" INDICATES FEW OR NO CLOUDS BELOW 12,000 FEET
WITH NO SIGNIFICANT WEATHER AND/OR OBSTRUCTIONS TO VISIBILITY.

THE REMARK "TC" DENOTES TEMPERATURE IN DEGREES CELSIUS.

ALZ001>011-014-016>018-020-262300-
NORTH ALABAMA

CITY           SKY/WX    TMP DP  RH WIND       PRES   REMARKS
MUSCLE SHOALS  CLOUDY    58  54  86 E7        29.84R
HUNTSVILLE     CLOUDY    56  54  93 NE12      29.82S
DECATUR        CLOUDY    56  54  93 NE9       29.82S
HALEYVILLE     LGT RAIN  57  57 100 N7        29.84R
GADSDEN        PTSUNNY   61  57  87 CALM      29.80S
$$

ALZ012-013-022-023-030>036-040>044-262300-
WEST CENTRAL ALABAMA

CITY           SKY/WX    TMP DP  RH WIND       PRES   REMARKS
TUSCALOOSA     CLOUDY    63  54  72 W7        29.82S
DEMOPOLIS      CLOUDY    65  51  62 W9G16     29.84S
$$

ALZ015-024>026-033>036-041>044-262300-
CENTRAL ALABAMA

CITY           SKY/WX    TMP DP  RH WIND       PRES   REMARKS
BIRMINGHAM     PTSUNNY   63  56  78 W9        29.81R
MONTGOMERY     FAIR      72  54  53 W14       29.80S
SHELBY CO ARPT CLOUDY    65  53  65 W10G17    29.80R
MAXWELL AFB    PTSUNNY   68  49  50 W6G20     29.79R
GREENVILLE     FAIR      71  50  47 W12G18    29.81R
SELMA          FAIR      70  52  52 W13G23    29.82R
PRATTVILLE     MOCLDY    69  51  53 W12       29.80R
BESSEMER       MOCLDY    63  51  65 W15G22    29.81R
TALLADEGA      PTSUNNY   65  58  76 SW7       29.80R
PELL CITY      MOCLDY    63  59  88 SW5       29.81R
MARION         CLOUDY    64  53  65 W14G22    29.83R
SYLACAUGA      PTSUNNY   67  55  65 W15G21    29.79S
$$

ALZ019-021-028-029-037-038-045>048-262300-
EAST CENTRAL ALABAMA

CITY           SKY/WX    TMP DP  RH WIND       PRES   REMARKS
ANNISTON       PTSUNNY   64  56  75 CALM      29.80R
ALEXANDER CITY FAIR      66  56  70 W6        29.79R
AUBURN         FAIR      66  56  70 W8        29.81S
$$

ALZ051>064-262300-
SOUTHWEST ALABAMA

CITY           SKY/WX    TMP DP  RH WIND       PRES   REMARKS
MOBILE         FAIR      73  51  46 NW9       29.84F
BROOKLEY FIELD FAIR      76  53  44 NW9       29.84F
EVERGREEN      FAIR      71  51  49 W5        29.83R
$$

ALZ049-050-065>069-262300-
SOUTHEAST ALABAMA

CITY           SKY/WX    TMP DP  RH WIND       PRES   REMARKS
DOTHAN         PTSUNNY   70  63  78 W10       29.83S
OZARK          FAIR      72  63  74 NW9       29.79F
TROY           FAIR      69  57  65 W10       29.81S
EUFAULA        CLOUDY    70  64  81 W12G17    29.79R
$$




USA.gov is the U.S. government's official web portal to all federal, state and local government web resources and services.